DK8PN Weather Reports


time (UTC)temp
C
wind
direction
speed
KPH
gust
KPH
rain 1hr
cm
rain 24hr
cm
rain mn
cm
humidity
%
barometer
mb
20260902000059 12 292 0.0 0.0 0.00 0.00 0.00 90 1019.5
20260901234607 12 292 0.0 0.0 0.00 0.00 0.00 89 1019.5
20260901233058 12 292 0.0 0.0 0.00 0.00 0.00 89 1019.5
20260901231554 12 292 0.0 0.0 0.00 0.00 0.00 89 1019.5
20260901230055 13 292 0.0 0.0 0.00 0.00 0.00 89 1019.6
20260901224553 13 292 0.0 0.0 0.00 0.00 0.00 89 1019.6
20260901223059 13 292 0.0 0.0 0.00 0.00 0.00 88 1019.6
20260901221608 13 292 0.0 0.0 0.00 0.00 0.00 88 1019.6
20260901220047 13 292 0.0 0.0 0.00 0.00 0.00 88 1019.6
20260901214545 13 292 0.0 0.0 0.00 0.00 0.00 87 1019.5
20260901213046 14 292 0.0 0.0 0.00 0.00 0.00 86 1019.5
20260901211543 14 292 0.0 0.0 0.00 0.00 0.00 85 1019.4
20260901210046 14 292 0.0 0.0 0.00 0.00 0.00 84 1019.5
20260901204547 15 292 0.0 0.0 0.00 0.00 0.00 85 1019.4
20260901203057 15 292 0.0 0.0 0.00 0.00 0.00 83 1019.3
20260901201547 15 292 0.0 0.0 0.00 0.00 0.00 82 1019.3
20260901200040 15 292 0.0 0.0 0.00 0.00 0.00 81 1019.3
20260901194540 16 292 0.0 0.0 0.00 0.00 0.00 78 1019.3
20260901193042 16 292 0.0 0.0 0.00 0.00 0.00 78 1019.2
20260901191539 17 292 0.0 0.0 0.00 0.00 0.00 76 1019.1
20260901190043 17 292 0.0 0.0 0.00 0.00 0.00 74 1019.1
20260901184539 18 292 0.0 0.0 0.00 0.00 0.00 72 1019.0
20260901183039 18 292 0.0 0.0 0.00 0.00 0.00 72 1018.8
20260901181541 19 292 0.0 0.0 0.00 0.00 0.00 67 1018.7
20260901180037 20 292 0.0 0.0 0.00 0.00 0.00 63 1018.5
20260901174537 21 292 0.0 0.0 0.00 0.03 0.00 57 1018.5
20260901173035 21 292 0.0 0.0 0.00 0.03 0.00 56 1018.4
20260901171537 21 292 0.0 4.8 0.00 0.03 0.00 54 1018.4
20260901170033 22 288 0.0 1.6 0.00 0.03 0.00 52 1018.5
20260901164534 22 289 0.0 3.2 0.00 0.13 0.00 52 1018.6
20260901163034 22 289 0.0 3.2 0.00 0.13 0.00 53 1018.6
20260901161539 22 327 0.0 14.5 0.00 0.13 0.00 52 1018.6
20260901160047 22 329 1.6 14.5 0.00 0.13 0.00 51 1018.6
20260901154534 22 302 1.6 17.7 0.00 0.13 0.00 51 1018.5
20260901153037 23 307 0.0 14.5 0.00 0.13 0.00 49 1018.6
20260901151530 23 242 6.4 19.3 0.00 0.13 0.00 48 1018.5
20260901150032 23 351 0.0 14.5 0.00 0.13 0.00 51 1018.5
20260901144529 23 331 0.0 16.1 0.00 0.13 0.00 48 1018.5
20260901143031 23 333 3.2 19.3 0.00 0.13 0.00 49 1018.6
20260901141527 23 292 11.3 20.9 0.00 0.13 0.00 47 1018.7
20260901140027 23 264 1.6 14.5 0.00 0.13 0.00 45 1018.8
20260901134543 23 282 11.3 20.9 0.00 0.13 0.00 44 1018.9
20260901133026 23 252 8.0 22.5 0.00 0.13 0.00 46 1018.9
20260901131524 24 282 4.8 19.3 0.00 0.13 0.00 45 1019.0
20260901130025 23 243 8.0 19.3 0.00 0.13 0.00 48 1019.2
20260901124526 23 262 1.6 24.1 0.00 0.13 0.00 48 1019.3
20260901123022 23 240 1.6 19.3 0.00 0.13 0.00 48 1019.3
20260901121520 22 309 4.8 20.9 0.00 0.13 0.00 50 1019.4
20260901120017 22 269 1.6 19.3 0.00 0.13 0.00 53 1019.5
20260901114518 21 313 3.2 19.3 0.00 0.13 0.00 52 1019.6
20260901113019 22 279 1.6 17.7 0.00 0.13 0.00 54 1019.6
20260901111515 22 285 0.0 24.1 0.00 0.13 0.00 54 1019.6
20260901110013 22 281 1.6 20.9 0.00 0.13 0.00 56 1019.7
20260901104510 21 306 1.6 30.6 0.00 0.13 0.00 59 1019.8
20260901103009 21 270 4.8 22.5 0.00 0.13 0.00 59 1019.8
20260901101507 21 298 14.5 24.1 0.00 0.13 0.00 59 1019.8
20260901100008 20 260 6.4 19.3 0.00 0.13 0.00 61 1019.8
20260901094505 20 271 4.8 19.3 0.00 0.13 0.00 62 1019.8
20260901093012 20 308 4.8 16.1 0.00 0.13 0.00 64 1019.9
20260901091502 20 312 8.0 16.1 0.00 0.13 0.00 65 1019.9
20260901084559 20 296 1.6 12.9 0.00 0.13 0.00 69 1019.9
20260901083052 19 301 0.0 0.0 0.00 0.13 0.00 73 1019.8
20260901081552 19 301 0.0 0.0 0.00 0.13 0.00 76 1019.8
20260901080048 19 301 0.0 0.0 0.00 0.13 0.00 77 1019.8
20260901074545 18 300 0.0 0.0 0.00 0.13 0.00 78 1019.8
20260901073042 17 244 0.0 0.0 0.00 0.13 0.00 80 1019.7
20260901071540 17 244 0.0 0.0 0.00 0.13 0.00 81 1019.5
20260901070053 17 244 0.0 0.0 0.00 0.13 0.00 81 1019.6
20260901064535 16 243 0.0 0.0 0.00 0.13 0.00 85 1019.6
20260901063032 16 244 0.0 0.0 0.00 0.13 0.00 85 1019.5
20260901061527 14 244 0.0 0.0 0.00 0.13 0.00 90 1019.5
20260901060022 13 243 0.0 0.0 0.00 0.13 0.00 92 1019.5
20260901054520 12 243 0.0 0.0 0.00 0.13 0.00 93 1019.4
20260901053019 12 243 0.0 0.0 0.00 0.13 0.00 93 1019.4
20260901051512 12 243 0.0 0.0 0.00 0.13 0.00 93 1019.4
20260901050010 12 243 0.0 0.0 0.00 0.13 0.00 92 1019.5
20260901044507 12 243 0.0 0.0 0.00 0.20 0.00 92 1019.3
20260901043046 12 243 0.0 0.0 0.00 0.20 0.00 92 1019.3
20260901041545 12 243 0.0 0.0 0.00 0.20 0.00 92 1019.2
20260901040043 12 243 0.0 0.0 0.00 0.20 0.00 92 1019.2
20260901034550 12 243 0.0 0.0 0.00 0.20 0.00 92 1019.1
20260901033045 13 243 0.0 0.0 0.00 0.20 0.00 92 1019.0
20260901031546 13 243 0.0 0.0 0.00 0.20 0.00 92 1019.0
20260901030038 13 243 0.0 0.0 0.00 0.20 0.00 92 1019.1
20260901024538 13 243 0.0 0.0 0.00 0.20 0.00 92 1019.0
20260901023041 13 243 0.0 0.0 0.00 0.20 0.00 92 1019.0
20260901021541 13 243 0.0 0.0 0.00 0.20 0.00 92 1019.0
20260901020055 13 243 0.0 0.0 0.00 0.20 0.00 91 1018.9
20260901014631 13 243 0.0 0.0 0.00 0.23 0.00 91 1018.8
20260901013029 13 243 0.0 0.0 0.00 0.23 0.00 91 1018.8
20260901011536 13 243 0.0 0.0 0.00 0.23 0.00 91 1018.6
20260901010028 13 243 0.0 0.0 0.00 0.23 0.00 91 1018.7
20260901004526 13 243 0.0 0.0 0.00 0.51 0.00 91 1018.6
20260901003026 13 243 0.0 0.0 0.00 0.51 0.00 91 1018.4
20260901001527 13 243 0.0 0.0 0.00 0.51 0.00 91 1018.4